Location: Ramillies
(50.6368°N, 4.9145°E)
Time: 08:20:52
(UTC+01:00)

ISS - Visible Passes

Search period start: 24 March 2019 00:00
Search period end: 03 April 2019 01:00
Orbit: 408 x 411 km, 51.6° (Epoch: 24 March)

Date Brightness Start Highest point End Pass type
(mag) Time Alt. Az. Time Alt. Az. Time Alt. Az.
24 Mar -2.4 19:31:32 10° SSW 19:34:11 22° SE 19:36:50 10° E visible
24 Mar -3.5 21:07:08 10° WSW 21:09:56 60° SW 21:09:56 60° SW visible
25 Mar -3.7 20:16:34 10° WSW 20:19:49 58° SSE 20:21:38 23° E visible
25 Mar -1.4 21:53:06 10° W 21:54:25 22° W 21:54:25 22° W visible
26 Mar -3.9 21:02:24 10° W 21:05:43 79° N 21:05:59 71° NE visible
27 Mar -3.9 20:11:42 10° WSW 20:15:01 88° SSE 20:17:27 17° ENE visible
27 Mar -1.9 21:48:23 10° W 21:50:13 30° WNW 21:50:13 30° WNW visible
28 Mar -3.7 20:57:40 10° W 21:00:59 72° N 21:01:37 52° ENE visible
28 Mar -0.5 22:34:19 10° WNW 22:34:22 10° WNW 22:34:22 10° WNW visible
29 Mar -3.7 20:06:55 10° W 20:10:14 74° N 20:12:58 14° E visible
29 Mar -2.4 21:43:35 10° WNW 21:45:43 37° W 21:45:43 37° W visible
30 Mar -3.8 20:52:52 10° WNW 20:56:11 80° N 20:57:01 47° E visible
30 Mar -0.6 22:29:33 10° W 22:29:46 11° W 22:29:46 11° W visible
31 Mar -3.7 21:02:07 10° W 21:05:26 73° N 21:08:18 13° E visible
31 Mar -2.6 22:38:45 10° WNW 22:41:03 38° W 22:41:03 38° W visible
01 Apr -3.8 21:48:00 10° WNW 21:51:18 76° SSW 21:52:20 40° ESE visible
01 Apr -0.7 23:24:58 10° W 23:25:05 11° W 23:25:05 11° W visible
02 Apr -3.8 20:57:14 10° WNW 21:00:33 87° N 21:03:36 12° ESE visible
02 Apr -2.3 22:33:58 10° W 22:36:21 29° SW 22:36:21 29° SW visible
